Showing default

KANOPUS-V 6, 43877

Orbit data source: Space-Track

KANOPUS-V 6, 43877 is a payload satellite owned by VNIIEM (CIS) in SSO that was launched on Thu, 27 Dec 2018 UTC via a SOYUZ-2-1A launch vehicle from the Vostochny Cosmodrome (VOSTO). Payload-class satellites include a variety of spacecraft equipped with specific instruments for various scientific and technological missions. These include communications satellites like Starlink; space stations such as the ISS; scientific satellites like the Hubble; Earth observation satellites from companies like Planet Labs, Umbra, and HawkEye 360; GPS; miniature CubeSats for education and research; and military/defense satellites.

Loading next visibility...
Identifier
43877, 2018-111B
Orbit
SSO
Last TLE update
9 hours ago
Origin
Manufacturer
VNIIEM
Mission
Operational Civil Imaging
Bus & Motor
KANOPUS, Unknown motor
Mass
473 kg wet, 473 kg dry
Launch date (UTC)
2018-12-27 (7 years ago)
Launch vehicle
SOYUZ-2-1A
Launch site
Vostochny Cosmodrome (VOSTO)
Object type
Payload
Rocket body
Debris
Shape & HBR
Box + 2 Pan, 6 m
Radar Cross Section
1.665 m², Large (>1 m²)

Expand to show TLE details & history

TLE from 9 hours ago
0 KANOPUS-V 6
1 43877U 18111B   25186.56276107  .00003880  00000-0  12686-3 0  9992
2 43877  97.3798  98.0346 0002192  89.1461 271.0032 15.32323306360267
Epoch: 2025-07-05T13:30Z
TLE epoch observation values (Epoch: 2025-07-05T13:30:22.556Z)
Latitude
-0.00003°
Longitude
-28.3584°
Altitude
471.964 km
Speed
7.63 km/s
True Right ascension
06h 32m 08s
True Declination
0° 00' 00"
Sunlit
Object was in daylight at epoch
Visualization orbit readout
Latitude
-67.00659°
Longitude
134.34137°
Altitude
495.661 km
Speed
7.615 km/s
Apparent Right ascension
20h 42m 10s
Apparent Declination
-59° 12' 27"
Sunlit
Object is in full shadow
Visualization observer readout
Local Sidereal Time
10:21:28
Azimuth
149.213° SSE
Elevation
-65.172°
Doppler factor
1
Orbital elements
Apogee altitude
467.331 km
Perigee altitude
464.331 km
Semi-major axis
6,843.968 km
Eccentricity
0.00022
Inclination
97.3798°
RAAN
98.0346°
Arg. of periapsis
89.1461°
True anomaly
Unknown
Mean anomaly
271.0032°
Eccentric anomaly
Unknown
Mean motion
3.83337 °/min
Orbital period
93.91 mins
BSTAR
0.00012686
Loading maneuver chart data...
Loading SW <> Apogee altitude chart data...
Loading historical data...
Loading historical data...
Loading historical data...
Loading historical data...
Loading historical data...
Loading historical data...
Loading historical data...

KANOPUS-V 6 Visibility forecast

Observer location: undefined°, undefined°

Span
Click to sort rows by Start time (UTC) header in descending order
Start Az.
Max El. time (UTC)
Max El. Az.
Max El.
End time (UTC)
End Az.
6 mins2025-07-06 07:18:17.204Z356.534° N2025-07-06 07:21:17.204Z267.021° W35.592°2025-07-06 07:24:17.204Z211.058° SW
4 mins2025-07-06 17:52:17.204Z132.095° SE2025-07-06 17:53:17.204Z100.687° ESE34.63°2025-07-06 17:56:17.204Z4.608° NNE
|